Location: Goheenville
(40.9070°N, 79.3720°W)
Time: 11:28:36
(UTC-04:00)

Cosmos 1727 Rocket - Visible Passes

Search period start: 01 October 2016 00:00
Search period end: 11 October 2016 00:00
Orbit: 962 x 995 km, 82.9° (Epoch: 30 September)

Date Brightness Start Highest point End Pass type
(mag) Time Alt. Az. Time Alt. Az. Time Alt. Az.
01 Oct 4.6 04:04:16 54° ENE 04:04:16 54° ENE 04:09:34 10° NNE visible
01 Oct 5.2 05:49:02 21° WNW 05:49:15 21° WNW 05:53:59 10° NNW visible
02 Oct 6.5 02:46:18 15° ENE 02:46:18 15° ENE 02:48:31 10° NE visible
02 Oct 4.3 04:31:04 56° NNW 04:31:04 56° NNW 04:36:02 10° N visible
02 Oct 5.8 06:15:50 11° WNW 06:16:14 11° WNW 06:18:09 10° NW visible
03 Oct 5.9 03:13:02 24° NE 03:13:02 24° NE 03:16:17 10° NNE visible
03 Oct 4.8 04:57:48 36° NW 04:57:48 36° NW 05:02:10 10° N visible
04 Oct 5.4 03:39:44 33° NNE 03:39:44 33° NNE 03:43:12 10° NNE visible
04 Oct 5.4 05:24:30 21° NW 05:24:30 21° NW 05:27:52 10° NNW visible
05 Oct 6.8 02:21:39 10° NE 02:21:39 10° NE 02:21:47 10° NE visible
05 Oct 5.2 04:06:24 34° N 04:06:24 34° N 04:09:45 10° N visible
05 Oct 5.9 05:51:10 12° NW 05:51:10 12° NW 05:52:31 10° NW visible
06 Oct 6.4 02:48:16 16° NE 02:48:16 16° NE 02:49:49 10° NNE visible
06 Oct 5.4 04:33:02 27° NNW 04:33:02 27° NNW 04:35:56 10° N visible
07 Oct 6.1 03:14:52 21° NNE 03:14:52 21° NNE 03:16:51 10° NNE visible
07 Oct 5.7 04:59:38 18° NNW 04:59:38 18° NNW 05:01:43 10° NNW visible
08 Oct 5.9 03:41:27 22° N 03:41:27 22° N 03:43:26 10° N visible
08 Oct 6.1 05:26:12 11° NW 05:26:12 11° NW 05:26:41 10° NNW visible
09 Oct 6.8 02:23:14 10° NE 02:23:14 10° NE 02:23:20 10° NE visible
09 Oct 5.9 04:07:59 19° N 04:07:59 19° N 04:09:41 10° N visible
10 Oct 6.6 02:49:46 13° NNE 02:49:46 13° NNE 02:50:28 10° NNE visible
10 Oct 6.1 04:34:31 14° NNW 04:34:31 14° NNW 04:35:34 10° NNW visible
